Weather in Liubytske

Ukraine / Zaporizhia Region     47°45′59″N   35°57′24″E
temp.,
°C
wind,
m/s
gust,
m/s
humid.,
%
clouds,
%
prec.,
mm/h
press.,
hPa
HPBL,
m
5 march, fri
fri523:00+3sw7168718 0.0 1013569
02:00+3sw8149051 0.0 1013561
05:00+3sw71293100 0.0 1012511
08:00+4wsw5993100 0.0 1012459
11:00+6wsw4584100 0.1 1013479
14:00+8sw457298 0.1 1012644
17:00+6ssw2389100 0.0 1012122
20:00+5ssw1191100 0.0 101225
6 march, sat
sat623:00+4ne1194100 0.0 101131
02:00+4s2392100 0.0 101149
05:00+4w4896100 1.4 1011342
08:00+1n91490100 1.6 1013670
11:00+2nnw8117098 0.1 10171075
14:00+2nnw8105599 0.1 10191475
17:000nnw7105262 0.0 10211254
20:00−2nw596331 0.0 10241019
7 march, sun
sun723:00−2wnw49630 0.0 1025691
02:00−2w59630 0.0 1026503
05:00−2w48670 0.0 1026341
08:00−1wsw57620 0.0 1026534
11:00+2wsw79450 0.0 10241419
14:00+2wsw911411 0.0 10211281
17:00+1wsw6124817 0.0 1019668
20:00−1sw512628 0.0 1019356
8 march, mon
mon823:00−1wsw714691 0.0 1018522
02:00−1wsw715760 0.0 1017489
05:00−1wsw715788 0.0 1015490
08:00+1wsw8126745 0.0 1015756
11:00+5wsw8115227 0.0 10151375
14:00+6wsw8114915 0.0 10141591
17:00+4nw366668 0.0 1014235
20:00+1nne228084 0.0 101526
9 march, tue
tue923:000s0181100 0.0 101521
02:00−1s229183 0.1 101429
05:000sw368557 0.0 1014149
08:00+1wnw588178 0.0 1015624
11:00+2nnw466097 0.0 1016970
14:00+4nw564655 0.1 10161801
17:00+2nnw4654100 0.1 1017887
20:000n476882 0.1 1020466